Terminal Aerodrome Forecast
Issued by NWS Atlanta, GA

Home | Current Version | Previous Version | Text Only | Print | Product List | Glossary On
Versions: 1 2 3 4 5 6 7 8 9 10 11 12 13 14 15 16 17 18 19 20 21 22 23 24 25 26 27 28 29 30 31 32 33 34 35 36 37 38 39
384
FTUS42 KFFC 252330
TAFATL
TAF
KATL 252330Z 2600/2706 15008KT P6SM BKN070
     FM260300 15005KT P6SM VCSH OVC040
     FM260500 15008KT 6SM SHRA OVC035
     FM261000 16008KT 6SM -SHRA SCT012 BKN025
     FM261500 17012KT P6SM VCSH BKN025
     FM261800 17012KT P6SM VCSH BKN035
     FM270000 16007KT P6SM BKN035=

USA.gov is the U.S. government's official web portal to all federal, state and local government web resources and services.